This demonstration page uses our WeatherBlox Daily Observations layout. Learn more.

Left ArrowRight Arrow

38.20091, -84.87328

Hourly Observations for August 28, 2019

Temp ( °F °C ) Dew Point ( °F °C ) Humidity (%) Winds ( mph kmh ) Pressure ( in mb ) Visibility ( mi km ) Precip ( " mm )
12:53 am 00:53 Mostly Cloudy with Fog 68 20 66 18.9 93 93 Calm 29.93 1014 1 1 0.00 0.00
1:20 am 01:20 Mostly Cloudy with Mist and Fog 67 19.4 66 18.9 97 97 Calm 29.93 1014 1 2 0.00 0.00
1:29 am 01:29 Partly Cloudy with Mist and Fog 67 19.4 66 18.9 97 97 Calm 29.93 1014 2 2 0.00 0.00
1:44 am 01:44 Mostly Cloudy with Mist and Fog 67 19.4 65 18.3 93 93 Calm 29.93 1014 1 1 0.00 0.00
1:53 am 01:53 Mostly Cloudy with Fog 66 18.9 65 18.3 96 96 Calm 29.93 1014 1 1 0.00 0.00
2:39 am 02:39 Mostly Clear with Mist and Fog 67 19.4 65 18.3 93 93 Calm 29.93 1014 1 2 0.00 0.00
2:44 am 02:44 Mostly Clear with Mist and Fog 66 18.9 65 18.3 96 96 Calm 29.93 1014 3 5 0.00 0.00
2:53 am 02:53 Clear with Mist and Fog 65 18.3 65 18.3 100 100 Calm 29.93 1013 3 5 0.00 0.00
3:09 am 03:09 Clear with Mist and Fog 66 18.9 64 17.8 93 93 NW 3 6 29.93 1014 3 4 0.00 0.00
3:20 am 03:20 Clear with Mist and Fog 66 18.9 65 18.3 96 96 NW 3 6 29.93 1014 3 5 0.00 0.00
3:53 am 03:53 Clear 66 18.9 65 18.3 96 96 NW 5 7 29.93 1014 10 16 0.00 0.00
4:53 am 04:53 Clear 66 18.9 65 18.3 96 96 NW 3 6 29.94 1014 10 16 0.00 0.00
5:53 am 05:53 Clear 66 18.9 64 17.8 93 93 NW 3 6 29.95 1014 10 16 0.00 0.00
6:47 am 06:47 Clear with Mist and Fog 63 17 63 17 100 100 Calm 29.98 1015 1 2 0.00 0.00
6:53 am 06:53 Clear with Fog 64 17.8 62 16.7 93 93 Calm 29.96 1015 1 1 0.00 0.00
6:58 am 06:58 Clear with Mist and Fog 63 17.2 63 17.2 100 100 Calm 29.98 1015 2 2 0.00 0.00
7:07 am 07:07 Sunny with Fog 63 17.2 62 16.7 97 97 Calm 29.98 1015 1 1 0.00 0.00
7:23 am 07:23 Mostly Cloudy with Fog 63 17.2 61 16.1 93 93 Calm 29.98 1015 0 0 0.00 0.00
7:28 am 07:28 Sunny with Mist and Fog 62 16.7 62 16.7 100 100 Calm 29.99 1016 1 2 0.00 0.00
7:30 am 07:30 Sunny with Mist and Fog 62 16.7 62 16.7 100 100 Calm 29.99 1016 3 5 0.00 0.00
7:53 am 07:53 Sunny 63 17.2 63 17.2 100 100 WNW 3 6 29.99 1016 10 16 0.00 0.00
8:53 am 08:53 Sunny 69 20.6 66 18.9 90 90 NNW 3 6 30.00 1016 10 16 0.00 0.00
9:53 am 09:53 Sunny 72 22.2 65 18.3 79 79 NW 6 9 30.01 1016 10 16 0.00 0.00
10:53 am 10:53 Sunny 76 24.4 65 18.3 69 69 VRB 3 6 30.01 1016 10 16 0.00 0.00
11:53 am 11:53 Mostly Sunny 77 25 60 15.6 56 56 NW 8 13 30.02 1017 10 16 0.00 0.00
12:53 pm 12:53 Mostly Sunny 80 26.7 59 15 49 49 NW 9 15 30.01 1016 10 16 0.00 0.00
1:53 pm 13:53 Mostly Cloudy 80 26.7 59 15 49 49 WNW 7 11 30.01 1016 10 16 0.00 0.00
2:53 pm 14:53 Mostly Sunny 80 26.7 57 13.9 45 45 VRB 7 11 30.01 1016 10 16 0.00 0.00
3:53 pm 15:53 Sunny 81 27.2 53 11.7 38 38 NW 9 15 29.99 1016 10 16 0.00 0.00
5:53 pm 17:53 Sunny 79 26.1 52 11.1 39 39 W 9 15 29.99 1016 10 16 0.00 0.00
6:53 pm 18:53 Sunny 78 25.6 50 10 37 37 WNW 6 9 30.00 1016 10 16 0.00 0.00
7:53 pm 19:53 Sunny 75 23.9 52 11.1 45 45 WNW 5 7 30.00 1016 10 16 0.00 0.00
8:53 pm 20:53 Clear 70 21.1 53 11.7 55 55 WNW 5 7 30.01 1016 10 16 0.00 0.00
9:53 pm 21:53 Clear 65 18.3 57 13.9 76 76 Calm 30.02 1017 10 16 0.00 0.00
10:53 pm 22:53 Clear 62 16.7 56 13.3 80 80 Calm 30.03 1017 10 16 0.00 0.00
11:53 pm 23:53 Clear 60 15.6 57 13.9 90 90 NNW 3 6 30.04 1017 10 16 0.00 0.00

Powered by AerisWeather